Details From KTEX - Telluride Rgnl
To KASE - Aspen Pitkin Co Sardy Fld
Flight Number -
Tags generated
Created
Modified
Stats Distance 91 nm / 168 km
Max Altitude 11,200 ft / 3,414 m
Waypoints 3
Social Downloads 0
Likes 0
Share VATSIM

Download

Looking for another format? Having issues loading an existing format? Contact us
Advertisement - Login to hide

Notes

Basic altitude profile: - Ascent Rate: 2500ft/min - Ascent Speed: 250kts - Cruise Altitude: 35000ft - Cruise Speed: 420kts - Descent Rate: 1500ft/min - Descent Speed: 250kts Options: - Use NATs: yes - Use PACOTS: yes - Use low airways: yes - Use high airways: yes

Route

KTEX MEYRS KASE

ID Type Via Altitude Latitude Longitude Leg Dist Tot Dist Heading (true) Name
O KTEX APT - 0 ft / 0 m 37.95381˚ -107.90874˚ - 0 nm - Telluride Rgnl
MEYRS FIX - 11,200 ft / 3,414 m 38.47966˚ -107.46276˚ 37 nm 37 nm 34° / 34° -
O KASE APT - 0 ft / 0 m 39.22316˚ -106.86885˚ 52 nm 90 nm 32° / 32° Aspen Pitkin Co Sardy Fld

Altitude Profile

Advertisement - Login to hide

KTEX

Details ICAO KTEX (TEX)
Name Telluride Rgnl
Region United States
Timezone America/Denver (UTC-6.0)
Stats Elevation 9,078 ft / 2,767 m (AMSL)
Location 37.953812° -107.908742°
Runways 1
Magnetic Variation 9.375° E

METAR

KTEX 260035Z AUTO 15010G14KT 10SM CLR 22/M15 A3029 RMK AO2 T02191147

Decode

TAF

TAF KTEX 252320Z 2600/2624 15012G20KT P6SM SKC FM260300 16005KT P6SM SKC FM261600 14008G15KT P6SM FEW250 FM262100 19015G25KT P6SM FEW250

Decode

Departure Runways

ID Width Length Bearing (true) Bearing (mag) Surface Threshold Offset Overrun Length
09 98 ft / 30 m 7,095 ft / 2,163 m 104.96° 95.58° Asphalt 200 ft / 61 m 400 ft / 122 m
27 98 ft / 30 m 7,095 ft / 2,163 m 284.98° 275.60° Asphalt 200 ft / 61 m 400 ft / 122 m

KASE

Details ICAO KASE (ASE)
Name Aspen Pitkin Co Sardy Fld
Region United States
Timezone America/Denver (UTC-6.0)
Stats Elevation 7,820 ft / 2,384 m (AMSL)
Location 39.223164° -106.868847°
Runways 1
Magnetic Variation 9.050° E

METAR

KASE 252353Z 23006KT 10SM CLR 26/M07 A3014 RMK AO2 SLP087 T02611067 10272 20233 56015

Decode

TAF

TAF KASE 252320Z 2600/2624 VRB06KT P6SM SKC FM260300 19010KT P6SM SKC FM261500 VRB04KT P6SM FEW250 FM261900 20010G18KT P6SM FEW250 FM262200 22018G28KT P6SM FEW250

Decode

Destination Runways

ID Width Length Bearing (true) Bearing (mag) Surface Threshold Offset Overrun Length
15 100 ft / 30 m 7,011 ft / 2,137 m 159.71° 150.66° Asphalt 0 ft / 0 m 499 ft / 152 m
33 100 ft / 30 m 7,011 ft / 2,137 m 339.71° 330.66° Asphalt 0 ft / 0 m 0 ft / 0 m

Approach Navaids

Runway Type Ident Frequency Range Bearing (true) Bearing (mag) Slope Elevation
15 Localiser IPKN 108.50 MHz 25 nm / 46 km 312.00° 302.95° - 10,768 ft / 3,282 m (AMSL)
15 Localiser IASE 111.15 MHz 18 nm / 33 km 159.71° 150.66° - 7,832 ft / 2,387 m (AMSL)
15 DME IASE 111.15 MHz 18 nm / 33 km - - - 7,830 ft / 2,387 m (AMSL)

Popular Alternatives